Location: Holyhead Bay
(53.3667°N, 4.6667°W)
Time: 19:25:37
(UTC+00:00)

Cosmos 2219 Rocket - Pass Details

Date: 24 November 2020
Orbit: 829 x 845 km, 71.0° (Epoch: 16 January)

Event Time Altitude Azimuth Distance (km) Brightness Sun altitude
Rises 17:32:32 0° 215° (SW) 3,388 6.3 -11.8°
Reaches altitude 10° 17:34:58 10° 217° (SW) 2,455 5.5 -12.1°
Maximum altitude 17:40:37 77° 303° (WNW) 865 2.3 -12.9°
Drops below altitude 10° 17:46:16 10° 30° (NNE) 2,460 4.2 -13.7°
Enters shadow 17:46:23 - 30° (NNE) 2,503 4.2 -13.7°
